Location: Del Amo
(33.8464°N, 118.2104°W)
Time: 23:11:34
(UTC+00:00)

Vanguard 1 - All Passes

Search period start: 11 September 2024 00:00
Search period end: 21 September 2024 00:00
Orbit: 649 x 3825 km, 34.2° (Epoch: 11 September)

Date Brightness Start Highest point End Pass type
(mag) Time Alt. Az. Time Alt. Az. Time Alt. Az.
11 Sep - 01:19:17 10° W 01:24:12 77° SSW 01:28:39 10° ESE daylight
11 Sep - 03:40:18 10° WSW 03:43:49 22° SSW 03:48:02 10° SSE visible
11 Sep - 18:30:17 10° SSW 18:41:30 26° SSE 18:48:46 10° E daylight
11 Sep - 20:52:43 10° SW 21:03:27 57° SSE 21:09:28 10° E daylight
11 Sep - 23:16:59 10° W 23:24:02 86° N 23:28:42 10° E daylight
12 Sep - 01:39:14 10° W 01:43:56 60° SSW 01:48:22 10° ESE daylight
12 Sep - 04:01:02 10° WSW 04:03:35 14° SSW 04:06:29 10° S visible
12 Sep - 16:33:57 10° SSE 16:38:04 11° SSE 16:41:44 10° SE daylight
12 Sep - 18:48:57 10° SSW 19:01:38 33° SSE 19:09:14 10° E daylight
12 Sep - 21:12:44 10° WSW 21:23:21 69° SSE 21:29:13 10° E daylight
12 Sep - 23:37:09 10° W 23:43:53 86° N 23:48:27 10° E daylight
13 Sep - 01:59:12 10° W 02:03:37 43° SSW 02:07:56 10° SE daylight
13 Sep - 16:48:34 10° S 16:58:26 17° SSE 17:05:52 10° ESE daylight
13 Sep - 19:08:09 10° SW 19:21:42 42° SSE 19:29:22 10° E daylight
13 Sep - 21:32:56 10° WSW 21:43:13 80° SSE 21:48:56 10° E daylight
13 Sep - 23:57:16 10° W 00:03:41 89° S 00:08:12 10° E daylight
14 Sep - 02:19:17 10° W 02:23:16 29° SSW 02:27:15 10° SE visible
14 Sep - 17:05:47 10° SSW 17:18:41 24° SSE 17:27:30 10° ESE daylight
14 Sep - 19:27:44 10° SW 19:41:43 53° SSE 19:49:19 10° E daylight
14 Sep - 21:53:14 10° W 22:03:05 89° S 22:08:39 10° E daylight
15 Sep - 00:17:21 10° W 00:23:28 77° SSW 00:27:55 10° ESE daylight
15 Sep - 02:39:39 10° WSW 02:42:52 19° SSW 02:46:09 10° SSE visible
15 Sep - 17:23:58 10° SSW 17:38:53 31° SSE 17:48:19 10° E daylight
15 Sep - 19:47:37 10° WSW 20:01:41 63° SSE 20:09:08 10° E daylight
15 Sep - 22:13:34 10° W 22:22:58 87° N 22:28:22 10° E daylight
16 Sep - 00:37:24 10° W 00:43:10 60° SSW 00:47:32 10° ESE daylight
16 Sep - 03:00:53 10° SW 03:02:27 12° SSW 03:04:03 10° SSW visible
16 Sep - 15:25:35 10° S 15:34:48 15° SE 15:42:24 10° ESE daylight
16 Sep - 17:42:47 10° SSW 17:59:01 40° SSE 18:08:40 10° E daylight
16 Sep - 20:07:46 10° WSW 20:21:38 74° SSE 20:28:52 10° E daylight
16 Sep - 22:33:54 10° W 22:42:50 87° N 22:48:05 10° E daylight
17 Sep - 00:57:29 10° W 01:02:49 43° SSW 01:07:00 10° SE daylight
17 Sep - 15:41:38 10° S 15:55:05 21° SE 16:05:10 10° ESE daylight
17 Sep - 18:02:03 10° SW 18:19:07 49° SSE 18:28:45 10° E daylight
17 Sep - 20:28:06 10° WSW 20:41:34 83° SSE 20:48:35 10° E daylight
17 Sep - 22:54:10 10° W 23:02:42 88° S 23:07:47 10° E daylight
18 Sep - 01:17:40 10° W 01:22:21 30° SSW 01:26:13 10° SSE daylight
18 Sep - 15:59:08 10° SSW 16:15:17 28° SSE 16:26:32 10° E daylight
18 Sep - 18:21:42 10° SW 18:39:10 58° SSE 18:48:40 10° E daylight
18 Sep - 20:48:33 10° W 21:01:30 89° SSE 21:08:17 10° E daylight
18 Sep - 23:14:24 10° W 23:22:29 78° SSW 23:27:26 10° ESE daylight
19 Sep - 01:38:08 10° W 01:41:48 19° SW 01:45:02 10° SSE daylight
19 Sep - 14:05:42 10° SSE 14:10:35 11° SE 14:15:09 10° SE daylight
19 Sep - 16:17:26 10° SSW 16:35:27 36° SSE 16:47:15 10° E daylight
19 Sep - 18:41:40 10° WSW 18:59:12 68° SSE 19:08:29 10° E daylight
19 Sep - 21:09:02 10° W 21:21:27 87° N 21:27:59 10° E daylight
19 Sep - 23:34:35 10° W 23:42:11 63° SSW 23:47:00 10° ESE daylight
20 Sep - 01:59:31 10° WSW 02:01:13 12° SW 02:02:49 10° SSW daylight
20 Sep - 14:18:43 10° S 14:30:50 17° SE 14:41:02 10° ESE daylight
20 Sep - 16:36:17 10° SW 16:55:34 44° SSE 17:07:35 10° E daylight
20 Sep - 19:01:53 10° WSW 19:19:13 77° SSE 19:28:15 10° E daylight
20 Sep - 21:29:32 10° W 21:41:22 88° N 21:47:41 10° E daylight
